FLOCK 2B-13

Last updated on Wed Oct 12 2016 05:19:10 GMT+0000 (Coordinated Universal Time)

1 40979U 98067HM 16284.76106737 .08653240 12330-4 90101-3 0 9992 2 40979 51.6413 149.6107 0005628 280.5106 80.0595 16.36884761 58079

Satellite not in orbit